Time,TemperatureF,DewpointF,PressureIn,WindDirection,WindDirectionDegrees,WindSpeedMPH,WindSpeedGustMPH,Humidity,HourlyPrecipIn,Conditions,Clouds,dailyrainin,SolarRadiationWatts/m^2,SoftwareType,DateUTC
2013-06-10 00:02:00,53.0,44.0,-100.00,ENE,78,1.0,3.0,72,0.00,,,0.00,15.000000,,2013-06-10 08:02:00,
2013-06-10 00:12:00,53.0,44.0,-100.00,ENE,78,1.0,3.0,72,0.00,,,0.00,15.000000,,2013-06-10 08:12:00,
2013-06-10 00:21:00,53.0,44.0,-100.00,ENE,78,1.0,3.0,72,0.00,,,0.00,15.000000,,2013-06-10 08:21:00,
2013-06-10 00:52:00,52.0,44.0,-100.00,NNE,23,2.0,3.0,74,0.00,,,0.00,1.300000,,2013-06-10 08:52:00,
2013-06-10 01:02:00,52.0,44.0,-100.00,NNE,23,2.0,3.0,74,0.00,,,0.00,1.300000,,2013-06-10 09:02:00,
2013-06-10 01:12:00,52.0,44.0,-100.00,NNE,23,2.0,3.0,74,0.00,,,0.00,1.300000,,2013-06-10 09:12:00,
2013-06-10 01:22:00,52.0,44.0,-100.00,NNE,23,2.0,3.0,74,0.00,,,0.00,1.300000,,2013-06-10 09:22:00,
2013-06-10 01:53:00,53.0,44.0,-100.00,NNE,21,1.0,4.0,71,0.00,,,0.00,0.800000,,2013-06-10 09:53:00,
2013-06-10 02:03:00,53.0,44.0,-100.00,NNE,21,1.0,4.0,71,0.00,,,0.00,0.800000,,2013-06-10 10:03:00,
2013-06-10 02:12:00,53.0,44.0,-100.00,NNE,21,1.0,4.0,71,0.00,,,0.00,0.800000,,2013-06-10 10:12:00,
2013-06-10 02:22:00,53.0,44.0,-100.00,NNE,21,1.0,4.0,71,0.00,,,0.00,0.800000,,2013-06-10 10:22:00,
2013-06-10 02:52:00,54.0,40.0,-100.00,NNW,330,2.0,4.0,59,0.00,,,0.00,0.800000,,2013-06-10 10:52:00,
2013-06-10 03:02:00,54.0,40.0,-100.00,NNW,330,2.0,4.0,59,0.00,,,0.00,0.800000,,2013-06-10 11:02:00,
2013-06-10 03:12:00,54.0,40.0,-100.00,NNW,330,2.0,4.0,59,0.00,,,0.00,0.800000,,2013-06-10 11:12:00,
2013-06-10 03:22:00,54.0,40.0,-100.00,NNW,330,2.0,4.0,59,0.00,,,0.00,0.800000,,2013-06-10 11:22:00,
2013-06-10 05:52:00,54.0,35.0,-100.00,NNE,13,3.0,5.0,49,-99.99,,,0.00,9.800000,,2013-06-10 13:52:00,
2013-06-10 06:02:00,54.0,35.0,-100.00,NNE,13,3.0,5.0,49,-99.99,,,0.00,9.800000,,2013-06-10 14:02:00,
2013-06-10 06:12:00,54.0,35.0,-100.00,NNE,13,3.0,5.0,49,-99.99,,,0.00,9.800000,,2013-06-10 14:12:00,
2013-06-10 06:52:00,56.0,39.0,-100.00,NW,307,3.0,7.0,54,0.00,,,0.00,82.300003,,2013-06-10 14:52:00,
2013-06-10 07:02:00,56.0,39.0,-100.00,NW,307,3.0,7.0,54,0.00,,,0.00,82.300003,,2013-06-10 15:02:00,
2013-06-10 07:12:00,56.0,39.0,-100.00,NW,307,3.0,7.0,54,0.00,,,0.00,82.300003,,2013-06-10 15:12:00,
2013-06-10 07:22:00,56.0,39.0,-100.00,NW,307,3.0,7.0,54,0.00,,,0.00,82.300003,,2013-06-10 15:22:00,
2013-06-10 07:53:00,59.0,42.0,-100.00,East,79,1.0,6.0,52,0.00,,,0.00,204.600006,,2013-06-10 15:53:00,
2013-06-10 08:03:00,59.0,42.0,-100.00,East,79,1.0,6.0,52,0.00,,,0.00,204.600006,,2013-06-10 16:03:00,
2013-06-10 08:12:00,59.0,42.0,-100.00,East,79,1.0,6.0,52,0.00,,,0.00,204.600006,,2013-06-10 16:12:00,
2013-06-10 08:23:00,59.0,42.0,-100.00,East,79,1.0,6.0,52,0.00,,,0.00,204.600006,,2013-06-10 16:23:00,
2013-06-10 08:53:00,62.0,46.0,-100.00,ENE,74,2.0,6.0,54,0.00,,,0.00,334.200012,,2013-06-10 16:53:00,
2013-06-10 09:03:00,62.0,46.0,-100.00,ENE,74,2.0,6.0,54,0.00,,,0.00,334.200012,,2013-06-10 17:03:00,
2013-06-10 09:14:00,62.0,46.0,-100.00,ENE,74,2.0,6.0,54,0.00,,,0.00,334.200012,,2013-06-10 17:14:00,
2013-06-10 09:26:00,62.0,46.0,-100.00,ENE,74,2.0,6.0,54,0.00,,,0.00,334.200012,,2013-06-10 17:26:00,
2013-06-10 09:58:00,62.0,39.0,-100.00,East,97,4.0,7.0,43,0.00,,,0.00,464.600006,,2013-06-10 17:58:00,
2013-06-10 10:07:00,62.0,39.0,-100.00,East,97,4.0,7.0,43,0.00,,,0.00,464.600006,,2013-06-10 18:07:00,
2013-06-10 10:14:00,62.0,39.0,-100.00,East,97,4.0,7.0,43,0.00,,,0.00,464.600006,,2013-06-10 18:14:00,
2013-06-10 10:24:00,62.0,39.0,-100.00,East,97,4.0,7.0,43,0.00,,,0.00,464.600006,,2013-06-10 18:24:00,
2013-06-10 10:55:00,62.0,44.0,-100.00,ENE,71,2.0,6.0,52,0.00,,,0.00,590.500000,,2013-06-10 18:55:00,
2013-06-10 11:03:00,62.0,44.0,-100.00,ENE,71,2.0,6.0,52,0.00,,,0.00,590.500000,,2013-06-10 19:03:00,
2013-06-10 11:12:00,62.0,44.0,-100.00,ENE,71,2.0,6.0,52,0.00,,,0.00,590.500000,,2013-06-10 19:12:00,
2013-06-10 11:22:00,62.0,44.0,-100.00,ENE,71,2.0,6.0,52,0.00,,,0.00,590.500000,,2013-06-10 19:22:00,
2013-06-10 11:53:00,64.0,40.0,-100.00,East,100,4.0,8.0,41,0.00,,,0.00,683.900024,,2013-06-10 19:53:00,
2013-06-10 12:02:00,64.0,40.0,-100.00,East,100,4.0,8.0,41,0.00,,,0.00,683.900024,,2013-06-10 20:02:00,
2013-06-10 12:12:00,64.0,40.0,-100.00,East,100,4.0,8.0,41,0.00,,,0.00,683.900024,,2013-06-10 20:12:00,
2013-06-10 12:22:00,64.0,40.0,-100.00,East,100,4.0,8.0,41,0.00,,,0.00,683.900024,,2013-06-10 20:22:00,
2013-06-10 12:52:00,68.0,40.0,-100.00,ENE,62,4.0,8.0,36,0.00,,,0.00,778.299988,,2013-06-10 20:52:00,
2013-06-10 13:02:00,68.0,40.0,-100.00,ENE,62,4.0,8.0,36,0.00,,,0.00,778.299988,,2013-06-10 21:02:00,
2013-06-10 13:12:00,68.0,40.0,-100.00,ENE,62,4.0,8.0,36,0.00,,,0.00,778.299988,,2013-06-10 21:12:00,
2013-06-10 13:22:00,68.0,40.0,-100.00,ENE,62,4.0,8.0,36,0.00,,,0.00,778.299988,,2013-06-10 21:22:00,
2013-06-10 13:53:00,68.0,41.0,-100.00,SE,127,5.0,11.0,37,0.00,,,0.00,806.099976,,2013-06-10 21:53:00,
2013-06-10 14:03:00,68.0,41.0,-100.00,SE,127,5.0,11.0,37,0.00,,,0.00,806.099976,,2013-06-10 22:03:00,
2013-06-10 14:22:00,68.0,41.0,-100.00,SE,127,5.0,11.0,37,0.00,,,0.00,806.099976,,2013-06-10 22:22:00,
2013-06-10 14:52:00,66.0,37.0,-100.00,ENE,60,8.0,10.0,35,0.00,,,0.00,681.299988,,2013-06-10 22:52:00,
2013-06-10 15:02:00,66.0,37.0,-100.00,ENE,60,8.0,10.0,35,0.00,,,0.00,681.299988,,2013-06-10 23:02:00,
2013-06-10 15:22:00,66.0,37.0,-100.00,ENE,60,8.0,10.0,35,0.00,,,0.00,681.299988,,2013-06-10 23:22:00,
2013-06-10 15:52:00,69.0,41.0,-100.00,ESE,114,3.0,12.0,36,0.00,,,0.00,825.299988,,2013-06-10 23:52:00,
2013-06-10 16:02:00,69.0,41.0,-100.00,ESE,114,3.0,12.0,36,0.00,,,0.00,825.299988,,2013-06-11 00:02:00,
2013-06-10 16:12:00,69.0,41.0,-100.00,ESE,114,3.0,12.0,36,0.00,,,0.00,825.299988,,2013-06-11 00:12:00,
2013-06-10 16:22:00,69.0,41.0,-100.00,ESE,114,3.0,12.0,36,0.00,,,0.00,825.299988,,2013-06-11 00:22:00,
2013-06-10 16:52:00,67.0,40.0,-100.00,East,92,3.0,9.0,36,0.00,,,0.00,753.000000,,2013-06-11 00:52:00,
2013-06-10 17:02:00,67.0,40.0,-100.00,East,92,3.0,9.0,36,0.00,,,0.00,753.000000,,2013-06-11 01:02:00,
2013-06-10 17:12:00,67.0,40.0,-100.00,East,92,3.0,9.0,36,0.00,,,0.00,753.000000,,2013-06-11 01:12:00,
2013-06-10 17:22:00,67.0,40.0,-100.00,East,92,3.0,9.0,36,0.00,,,0.00,753.000000,,2013-06-11 01:22:00,
2013-06-10 17:52:00,69.0,43.0,-100.00,WSW,240,3.0,7.0,38,0.00,,,0.00,658.900024,,2013-06-11 01:52:00,
2013-06-10 18:02:00,69.0,43.0,-100.00,WSW,240,3.0,7.0,38,0.00,,,0.00,658.900024,,2013-06-11 02:02:00,
2013-06-10 18:12:00,69.0,43.0,-100.00,WSW,240,3.0,7.0,38,0.00,,,0.00,658.900024,,2013-06-11 02:12:00,
2013-06-10 18:22:00,69.0,43.0,-100.00,WSW,240,3.0,7.0,38,0.00,,,0.00,658.900024,,2013-06-11 02:22:00,
2013-06-10 18:52:00,69.0,42.0,-100.00,WSW,245,4.0,8.0,38,0.00,,,0.00,546.900024,,2013-06-11 02:52:00,
2013-06-10 19:02:00,69.0,42.0,-100.00,WSW,245,4.0,8.0,38,0.00,,,0.00,546.900024,,2013-06-11 03:02:00,
2013-06-10 19:12:00,69.0,42.0,-100.00,WSW,245,4.0,8.0,38,0.00,,,0.00,546.900024,,2013-06-11 03:12:00,
2013-06-10 19:22:00,69.0,42.0,-100.00,WSW,245,4.0,8.0,38,0.00,,,0.00,546.900024,,2013-06-11 03:22:00,
2013-06-10 19:53:00,71.0,39.0,-100.00,WNW,292,4.0,8.0,31,0.00,,,0.00,441.000000,,2013-06-11 03:53:00,
2013-06-10 20:02:00,71.0,39.0,-100.00,WNW,292,4.0,8.0,31,0.00,,,0.00,441.000000,,2013-06-11 04:02:00,
2013-06-10 20:53:00,68.0,39.0,-100.00,WSW,243,7.0,9.0,35,0.00,,,-99.99,289.899994,,2013-06-11 04:53:00,
2013-06-10 21:02:00,68.0,39.0,-100.00,WSW,243,7.0,9.0,35,0.00,,,-99.99,289.899994,,2013-06-11 05:02:00,
2013-06-10 21:12:00,68.0,39.0,-100.00,WSW,243,7.0,9.0,35,0.00,,,-99.99,289.899994,,2013-06-11 05:12:00,
2013-06-10 21:22:00,68.0,39.0,-100.00,WSW,243,7.0,9.0,35,0.00,,,-99.99,289.899994,,2013-06-11 05:22:00,
2013-06-10 21:52:00,64.0,38.0,-100.00,WSW,242,5.0,14.0,38,0.00,,,0.00,162.199997,,2013-06-11 05:52:00,
2013-06-10 22:02:00,64.0,38.0,-100.00,WSW,242,5.0,14.0,38,0.00,,,0.00,162.199997,,2013-06-11 06:02:00,
2013-06-10 22:12:00,64.0,38.0,-100.00,WSW,242,5.0,14.0,38,0.00,,,0.00,162.199997,,2013-06-11 06:12:00,
2013-06-10 22:22:00,64.0,38.0,-100.00,WSW,242,5.0,14.0,38,0.00,,,0.00,162.199997,,2013-06-11 06:22:00,
2013-06-10 22:52:00,63.0,37.0,-100.00,SW,234,4.0,8.0,38,0.00,,,0.00,24.700001,,2013-06-11 06:52:00,
2013-06-10 23:02:00,63.0,37.0,-100.00,SW,234,4.0,8.0,38,0.00,,,0.00,24.700001,,2013-06-11 07:02:00,
2013-06-10 23:12:00,63.0,37.0,-100.00,SW,234,4.0,8.0,38,0.00,,,0.00,24.700001,,2013-06-11 07:12:00,
2013-06-10 23:22:00,63.0,37.0,-100.00,SW,234,4.0,8.0,38,0.00,,,0.00,24.700001,,2013-06-11 07:22:00,
2013-06-10 23:52:00,65.0,37.0,-100.00,SSW,200,6.0,10.0,36,0.00,,,0.00,6.800000,,2013-06-11 07:52:00,